[[{"header":{"parameterUnit":"m.s-1","parameterCategory":1,"la1":30.2991,"la2":30.254,"lo1":-89.0895,"lo2":-89.0444,"dy":0.0017,"dx":0.0017,"nx":28,"ny":28,"refTime":"2024-03-18T03:00:00:Z","depth":0,"parameterNumber":2,"parameterNumberName":"U-component_of_WINDS"},"data":[0,0,0,0,0,0,0,0,0,0,0,0,0,0,0,0,0,0,0,0,0,0,0,0,0,0,0,0,0,0,0,0,0,0,0,0,0,0,0,0,0,0,0,0,0,0,0,0,0,0,0,0,0,0,0,0,0,0,-0.1849,-0.1849,0,-0.1847,-0.1847,-0.1847,-0.1815,-0.1815,-0.1814,-0.1813,-0.1814,-0.1814,-0.1815,0,0,0,0,0,0,0,0,0,0,0,0,0,-0.1829,-0.1829,-0.1849,-0.1849,-0.1849,-0.1847,-0.1847,-0.1847,-0.1816,-0.1815,-0.1814,-0.1813,-0.1813,-0.1814,-0.1815,0,0,0,0,0,0,0,0,0,0,0,0,0,-0.1833,-0.183,-0.1849,-0.1833,-0.1832,-0.1847,-0.1847,-0.1847,-0.1816,-0.1815,-0.1813,-0.1812,-0.1813,-0.1814,-0.1815,-0.1846,0,0,-0.1819,-0.1819,0,0,0,0,0,0,0,0,-0.1833,-0.1834,-0.1836,-0.1834,-0.1833,-0.183,-0.184,-0.1847,-0.1816,-0.1822,-0.1813,-0.1812,-0.182,-0.1821,-0.1823,-0.1846,-0.1846,-0.1819,-0.1819,-0.182,-0.182,0,0,0,0,0,0,0,-0.1833,-0.1834,-0.1848,-0.1836,-0.1834,-0.1827,-0.1826,-0.1841,-0.1828,-0.1821,-0.1819,-0.1819,-0.1819,-0.1822,-0.1823,-0.1846,-0.1819,-0.182,-0.182,-0.1821,-0.1895,-0.1896,0,0,0,0,0,0,-0.1834,-0.1834,-0.1848,-0.1848,-0.183,-0.1828,-0.1827,-0.1832,-0.1828,-0.1826,-0.182,-0.1818,-0.1821,-0.1821,-0.1823,-0.1859,-0.182,-0.1821,-0.1822,-0.1894,-0.1896,-0.1897,0,0,0,0,0,0,-0.1834,-0.1836,-0.1848,-0.184,-0.1841,-0.183,-0.1835,-0.1833,-0.1835,-0.1827,-0.1824,-0.1825,-0.182,-0.1821,-0.184,-0.1859,-0.1822,-0.1823,-0.1892,-0.1894,-0.1896,-0.1933,0,0,0,0,0,0,-0.1834,-0.1836,-0.1847,-0.1841,-0.1842,-0.1866,-0.1837,-0.1834,-0.1837,-0.1834,-0.1831,-0.1829,-0.1819,-0.1839,-0.1842,-0.186,-0.1823,-0.1891,-0.1893,-0.1896,-0.193,-0.1936,-0.1941,0,0,0,0,0,-0.1833,-0.1858,-0.1848,-0.185,-0.1856,-0.1867,-0.1868,-0.1855,-0.1839,-0.1851,-0.1845,-0.1829,-0.1856,-0.1841,-0.1844,-0.1863,-0.189,-0.1893,-0.1895,-0.1928,-0.1935,-0.1941,0,0,0,0,0,0,-0.1869,-0.1857,-0.1846,-0.187,-0.187,-0.1862,-0.1876,-0.1862,-0.1868,-0.1864,-0.1848,-0.1848,-0.187,-0.1868,-0.1852,-0.1893,-0.187,-0.1874,-0.1894,-0.19,-0.1906,-0.1907,-0.1824,0,0,0,0,0,-0.1879,-0.1889,-0.1878,-0.19,-0.1901,-0.1888,-0.1893,-0.1882,-0.1882,-0.1882,-0.1878,-0.1879,-0.1887,-0.1893,-0.19,-0.1929,-0.1928,-0.1943,-0.1948,-0.1953,-0.1957,-0.1972,-0.1979,-0.1906,-0.1906,-0.1906,0,0,-0.1902,-0.1896,-0.1904,-0.1908,-0.1906,-0.1917,-0.1889,-0.1901,-0.191,-0.1884,-0.1903,-0.1899,-0.1899,-0.1923,-0.1933,-0.1922,-0.1976,-0.1957,-0.196,-0.1962,-0.1976,-0.1983,-0.1989,-0.1908,-0.1908,-0.1908,0,0,-0.1948,-0.1945,-0.1963,-0.1962,-0.1959,-0.1951,-0.1955,-0.1949,-0.1945,-0.1963,-0.1944,-0.1954,-0.1968,-0.1969,-0.1972,-0.2017,-0.2003,-0.2019,-0.2049,-0.2064,-0.207,-0.2075,-0.2092,-0.2099,-0.2023,-0.2023,-0.2023,0,-0.1977,-0.1992,-0.1975,-0.1988,-0.1991,-0.1966,-0.1985,-0.1985,-0.1986,-0.1989,-0.1975,-0.1993,-0.1991,-0.2015,-0.2026,-0.2028,-0.2034,-0.2021,-0.207,-0.2075,-0.2079,-0.2096,-0.2102,-0.2025,-0.2025,-0.2025,-0.2024,0,-0.2028,-0.2038,-0.2053,-0.2053,-0.2057,-0.2074,-0.2059,-0.2065,-0.2054,-0.2047,-0.2065,-0.2062,-0.2068,-0.2072,-0.2062,-0.2095,-0.2088,-0.2073,-0.205,-0.2089,-0.2104,-0.211,-0.2028,-0.2027,-0.2027,-0.2026,0,0,-0.21,-0.2088,-0.2094,-0.2094,-0.2089,-0.2097,-0.2112,-0.2117,-0.2123,-0.2123,-0.2137,-0.2149,-0.2134,-0.2137,-0.2126,-0.2139,-0.2176,-0.2121,-0.2121,-0.2133,-0.2214,-0.2228,-0.2235,-0.2166,-0.2167,-0.2168,-0.2215,0,-0.2146,-0.2171,-0.2155,-0.2182,-0.2192,-0.2168,-0.2181,-0.218,-0.2173,-0.2181,-0.2174,-0.2183,-0.2162,-0.2164,-0.2175,-0.2169,-0.2192,-0.2165,-0.218,-0.218,-0.2183,-0.2243,-0.2257,-0.2302,-0.222,-0.2221,-0.2222,0,-0.2204,-0.2206,-0.2234,-0.2226,-0.223,-0.2242,-0.2245,-0.2253,-0.225,-0.2245,-0.2247,-0.2232,-0.2247,-0.2222,-0.2243,-0.2225,-0.223,-0.2227,-0.2229,-0.2232,-0.2205,-0.225,-0.2316,-0.2323,-0.2231,-0.223,-0.223,0,-0.2256,-0.2265,-0.2283,-0.2284,-0.2275,-0.2284,-0.2281,-0.2277,-0.2281,-0.2283,-0.2286,-0.2291,-0.2294,-0.2298,-0.2285,-0.2268,-0.2308,-0.2283,-0.2305,-0.2306,-0.2317,-0.2317,-0.2387,-0.2316,-0.2316,-0.2316,-0.2316,0,-0.231,-0.2329,-0.2307,-0.2318,-0.2339,-0.232,-0.2341,-0.2335,-0.2331,-0.2342,-0.2321,-0.2332,-0.2313,-0.2322,-0.2311,-0.2331,-0.2332,-0.2329,-0.2326,-0.2332,-0.2333,-0.2337,-0.2334,-0.2318,-0.2317,-0.2317,-0.2317,0,-0.2373,-0.2358,-0.2377,-0.2366,-0.2364,-0.238,-0.2371,-0.2381,-0.2372,-0.2386,-0.2388,-0.2374,-0.2383,-0.237,-0.2378,-0.2371,-0.2398,-0.239,-0.2399,-0.2398,-0.2422,-0.2421,-0.2499,-0.2509,-0.243,-0.243,-0.2431,0,-0.241,-0.2424,-0.2414,-0.2419,-0.2417,-0.2425,-0.2429,-0.241,-0.2415,-0.2412,-0.2424,-0.243,-0.2435,-0.2451,-0.2442,-0.2448,-0.2442,-0.2468,-0.2443,-0.2448,-0.2444,-0.2445,-0.2447,-0.2475,-0.2476,-0.2477,-0.2477,0,-0.2479,-0.247,-0.2476,-0.2478,-0.2482,-0.2484,-0.2484,-0.2489,-0.2469,-0.2476,-0.2484,-0.2488,-0.2495,-0.2503,-0.2506,-0.2504,-0.2488,-0.2485,-0.2491,-0.2498,-0.2504,-0.2503,-0.2416,-0.2484,-0.2483,-0.2483,-0.2482,-0.2482,-0.2531,-0.2542,-0.2537,-0.2544,-0.2541,-0.2541,-0.2551,-0.2542,-0.2548,-0.2552,-0.254,-0.2552,-0.2549,-0.2551,-0.255,-0.2559,-0.2548,-0.2556,-0.2559,-0.2562,-0.2566,-0.25,-0.256,-0.2559,-0.2559,-0.2559,-0.2559,0,-0.26,-0.2595,-0.2601,-0.2601,-0.2606,-0.2588,-0.2586,-0.2593,-0.2603,-0.26,-0.2605,-0.2615,-0.2621,-0.2612,-0.2618,-0.2627,-0.262,-0.2629,-0.263,-0.263,-0.2575,-0.2571,-0.2635,-0.2635,-0.2635,-0.2635,-0.2635,-0.2635,-0.2637,-0.2655,-0.2646,-0.2663,-0.2657,-0.2668,-0.2669,-0.2669,-0.2667,-0.2678,-0.2684,-0.2677,-0.2672,-0.2677,-0.2682,-0.268,-0.2684,-0.2696,-0.2691,-0.2641,-0.2634,-0.2627,-0.2622,-0.2697,-0.2697,-0.2745,-0.2746,-0.2746]},{"header":{"parameterUnit":"m.s-1","parameterCategory":1,"la1":30.2991,"la2":30.254,"lo1":-89.0895,"lo2":-89.0444,"dy":0.0017,"dx":0.0017,"nx":28,"ny":28,"refTime":"2024-03-18T03:00:00:Z","depth":0,"parameterNumber":3,"parameterNumberName":"V-component_of_WINDS"},"data":[0,0,0,0,0,0,0,0,0,0,0,0,0,0,0,0,0,0,0,0,0,0,0,0,0,0,0,0,0,0,0,0,0,0,0,0,0,0,0,0,0,0,0,0,0,0,0,0,0,0,0,0,0,0,0,0,0,0,-5.5598,-5.5598,0,-5.564,-5.5641,-5.5641,-5.5578,-5.5575,-5.5573,-5.5571,-5.561,-5.5613,-5.5616,0,0,0,0,0,0,0,0,0,0,0,0,0,-5.5457,-5.546,-5.5598,-5.5598,-5.5599,-5.564,-5.5641,-5.5641,-5.5578,-5.5575,-5.5573,-5.557,-5.5609,-5.5612,-5.5616,0,0,0,0,0,0,0,0,0,0,0,0,0,-5.551,-5.5461,-5.5597,-5.5572,-5.557,-5.564,-5.5641,-5.5641,-5.5579,-5.5575,-5.5572,-5.5569,-5.5607,-5.5612,-5.5616,-5.5711,0,0,-5.563,-5.5632,0,0,0,0,0,0,0,0,-5.5507,-5.5516,-5.5575,-5.5574,-5.5572,-5.56,-5.5605,-5.5664,-5.5579,-5.5575,-5.5571,-5.5567,-5.5609,-5.5613,-5.5628,-5.5713,-5.5714,-5.5631,-5.5634,-5.5636,-5.5637,0,0,0,0,0,0,0,-5.5504,-5.5513,-5.5614,-5.5576,-5.5574,-5.5557,-5.5561,-5.5616,-5.561,-5.5575,-5.5571,-5.5577,-5.5607,-5.5624,-5.5629,-5.5715,-5.5631,-5.5635,-5.5638,-5.5639,-5.5879,-5.5883,0,0,0,0,0,0,-5.5504,-5.5511,-5.5613,-5.5615,-5.5531,-5.5562,-5.5567,-5.5595,-5.5609,-5.5608,-5.558,-5.5574,-5.5618,-5.5623,-5.563,-5.5741,-5.5636,-5.564,-5.5643,-5.5876,-5.588,-5.5884,0,0,0,0,0,0,-5.5501,-5.5514,-5.5611,-5.5562,-5.5573,-5.5568,-5.56,-5.5597,-5.5614,-5.5613,-5.5611,-5.5598,-5.5615,-5.5623,-5.5692,-5.5742,-5.5642,-5.5646,-5.5871,-5.5877,-5.5882,-5.5965,0,0,0,0,0,0,-5.5497,-5.5513,-5.555,-5.5563,-5.5576,-5.5674,-5.5603,-5.56,-5.5622,-5.5615,-5.5629,-5.5628,-5.5613,-5.5685,-5.5696,-5.5746,-5.565,-5.5867,-5.5874,-5.588,-5.5958,-5.5973,-5.5986,0,0,0,0,0,-5.5493,-5.557,-5.5552,-5.5565,-5.5622,-5.5677,-5.5684,-5.5666,-5.5627,-5.5663,-5.5663,-5.5628,-5.5735,-5.5693,-5.5705,-5.5757,-5.5863,-5.5872,-5.588,-5.5952,-5.597,-5.5985,0,0,0,0,0,0,-5.5561,-5.5572,-5.5551,-5.5636,-5.5657,-5.5666,-5.5711,-5.5686,-5.5716,-5.5708,-5.5683,-5.5687,-5.576,-5.5765,-5.5718,-5.5849,-5.5792,-5.5803,-5.5843,-5.586,-5.5874,-5.5871,-5.5654,0,0,0,0,0,-5.5586,-5.5631,-5.5638,-5.5712,-5.5723,-5.5716,-5.5739,-5.5724,-5.5743,-5.5751,-5.5755,-5.5773,-5.5811,-5.5836,-5.587,-5.5959,-5.5961,-5.6001,-5.6015,-5.6026,-5.6035,-5.6082,-5.61,-5.591,-5.591,-5.591,0,0,-5.5638,-5.565,-5.5679,-5.5726,-5.574,-5.5786,-5.5723,-5.5774,-5.5808,-5.5758,-5.5823,-5.5827,-5.5846,-5.5925,-5.596,-5.5931,-5.6088,-5.6036,-5.6045,-5.6048,-5.6092,-5.611,-5.6126,-5.5916,-5.5915,-5.5914,0,0,-5.5756,-5.577,-5.5833,-5.5849,-5.5872,-5.5867,-5.5882,-5.5896,-5.5898,-5.5963,-5.5927,-5.5965,-5.6031,-5.6046,-5.6062,-5.6187,-5.6157,-5.6199,-5.6271,-5.6317,-5.6332,-5.6345,-5.6389,-5.6406,-5.6209,-5.6209,-5.6209,0,-5.5817,-5.5886,-5.5869,-5.5923,-5.5944,-5.5904,-5.5967,-5.5983,-5.6015,-5.603,-5.5998,-5.608,-5.6089,-5.6171,-5.6202,-5.6217,-5.6233,-5.6197,-5.6332,-5.6345,-5.6356,-5.6398,-5.6415,-5.6214,-5.6213,-5.6213,-5.6212,0,-5.596,-5.6009,-5.6057,-5.6092,-5.6119,-5.6177,-5.6167,-5.6196,-5.6179,-5.6177,-5.6244,-5.6255,-5.6291,-5.6309,-5.6292,-5.6389,-5.6371,-5.6336,-5.6278,-5.638,-5.6419,-5.6435,-5.6221,-5.6219,-5.6218,-5.6217,0,0,-5.6121,-5.6147,-5.6164,-5.618,-5.6202,-5.6239,-5.6295,-5.6333,-5.6358,-5.6381,-5.6427,-5.6484,-5.6453,-5.6471,-5.6455,-5.6496,-5.6595,-5.6456,-5.6456,-5.6481,-5.6701,-5.6727,-5.6746,-5.6575,-5.6578,-5.658,-5.67,0,-5.6238,-5.6338,-5.6325,-5.642,-5.6464,-5.6427,-5.6476,-5.6494,-5.6494,-5.653,-5.6529,-5.657,-5.6525,-5.6536,-5.6575,-5.6575,-5.6638,-5.6566,-5.6616,-5.6618,-5.6612,-5.6767,-5.6794,-5.6906,-5.6715,-5.6717,-5.6719,0,-5.6388,-5.642,-5.6521,-5.6538,-5.6555,-5.66,-5.6634,-5.6669,-5.6689,-5.6686,-5.6708,-5.6685,-5.674,-5.6683,-5.6758,-5.6709,-5.6728,-5.6732,-5.6735,-5.6738,-5.6674,-5.6773,-5.6941,-5.6958,-5.6743,-5.6741,-5.674,0,-5.6495,-5.6563,-5.6632,-5.6646,-5.6667,-5.67,-5.6709,-5.6726,-5.675,-5.6779,-5.6794,-5.6828,-5.6846,-5.6873,-5.6859,-5.6819,-5.6937,-5.6878,-5.6934,-5.6935,-5.696,-5.6958,-5.7133,-5.6974,-5.6974,-5.6974,-5.6973,0,-5.6627,-5.669,-5.668,-5.6723,-5.6791,-5.6775,-5.6843,-5.6848,-5.6864,-5.6905,-5.6874,-5.6913,-5.6894,-5.6931,-5.6921,-5.6985,-5.6993,-5.6991,-5.6988,-5.6994,-5.6994,-5.7005,-5.6997,-5.6978,-5.6977,-5.6976,-5.6975,0,-5.6758,-5.6754,-5.6826,-5.6842,-5.6847,-5.6897,-5.6909,-5.6948,-5.6946,-5.6999,-5.701,-5.7007,-5.7049,-5.7039,-5.7085,-5.7078,-5.7158,-5.7145,-5.7152,-5.7148,-5.7205,-5.72,-5.7393,-5.7417,-5.7243,-5.7245,-5.7247,0,-5.6842,-5.689,-5.6911,-5.6938,-5.6951,-5.6994,-5.7019,-5.7004,-5.7031,-5.7058,-5.7093,-5.7134,-5.7165,-5.7235,-5.7235,-5.727,-5.7257,-5.7322,-5.7262,-5.7267,-5.7257,-5.7254,-5.7259,-5.7334,-5.7336,-5.7337,-5.7339,0,-5.6992,-5.6988,-5.7026,-5.7064,-5.7095,-5.7123,-5.7148,-5.7171,-5.7158,-5.719,-5.7234,-5.7259,-5.7307,-5.7347,-5.738,-5.7388,-5.7361,-5.7358,-5.7373,-5.7379,-5.7381,-5.738,-5.7184,-5.7353,-5.7352,-5.7351,-5.735,-5.7349,-5.7101,-5.7142,-5.7164,-5.7207,-5.7225,-5.725,-5.7288,-5.7292,-5.7329,-5.7368,-5.7357,-5.7408,-5.7426,-5.7467,-5.748,-5.7518,-5.7493,-5.7515,-5.752,-5.7525,-5.7532,-5.7376,-5.7524,-5.7523,-5.7523,-5.7523,-5.7522,0,-5.7249,-5.7262,-5.7302,-5.7339,-5.7373,-5.7348,-5.7375,-5.7404,-5.745,-5.747,-5.7503,-5.7554,-5.7593,-5.7597,-5.7634,-5.7664,-5.7652,-5.7674,-5.7671,-5.7673,-5.7553,-5.7536,-5.7682,-5.7682,-5.7682,-5.7682,-5.7682,-5.7682,-5.733,-5.7398,-5.7397,-5.7473,-5.7485,-5.7536,-5.7553,-5.7576,-5.7592,-5.7651,-5.7685,-5.7688,-5.7702,-5.7739,-5.7774,-5.7774,-5.7788,-5.7815,-5.781,-5.7697,-5.7681,-5.7666,-5.765,-5.7818,-5.7818,-5.7927,-5.7928,-5.7928]}]]